Location: Donald C. Martin Observatory
(38.3885°N, 82.3916°W)
Time: 13:27:26
(UTC-04:00)

Cosmos 1484 Rocket - Visible Passes

Search period start: 19 April 2014 00:00
Search period end: 29 April 2014 00:00
Orbit: 516 x 577 km, 97.4° (Epoch: 19 April)

Date Brightness Start Highest point End Pass type
(mag) Time Alt. Az. Time Alt. Az. Time Alt. Az.
19 Apr 5.3 21:57:57 10° SW 22:00:57 20° W 22:03:56 10° NW visible
20 Apr 5.1 21:52:20 10° SSW 21:55:32 23° W 21:58:44 10° NW visible
21 Apr 4.8 21:46:44 10° SSW 21:50:07 27° W 21:53:29 10° NW visible
22 Apr 4.6 21:41:10 10° SSW 21:44:42 31° W 21:48:12 10° NNW visible
23 Apr 4.3 21:35:37 10° SSW 21:39:16 36° W 21:42:53 10° NNW visible
24 Apr 4.0 21:30:05 10° S 21:33:50 42° W 21:37:32 10° NNW visible
25 Apr 3.7 21:24:34 10° S 21:28:23 49° W 21:32:09 10° NNW visible
26 Apr 3.4 21:19:05 10° S 21:22:56 58° W 21:26:45 10° NNW visible
27 Apr 3.1 21:13:36 10° S 21:17:29 69° W 21:21:20 10° NNW visible
28 Apr 2.8 21:08:08 10° S 21:12:02 82° WSW 21:15:53 10° NNW visible
